Year,Month,Day,Hour,Minute,Value (Times are PST for temperature in C)
2014,09,21,00,00,13.50
2014,09,21,00,01,13.50
2014,09,21,00,02,13.50
2014,09,21,00,03,13.50
2014,09,21,00,04,13.50
2014,09,21,00,05,13.50
2014,09,21,00,06,13.50
2014,09,21,00,07,13.40
2014,09,21,00,08,13.40
2014,09,21,00,09,13.40
2014,09,21,00,10,13.40
2014,09,21,00,11,13.40
2014,09,21,00,12,13.40
2014,09,21,00,13,13.40
2014,09,21,00,14,13.40
2014,09,21,00,15,13.40
2014,09,21,00,16,13.40
2014,09,21,00,17,13.40
2014,09,21,00,18,13.40
2014,09,21,00,19,13.40
2014,09,21,00,20,13.40
2014,09,21,00,21,13.30
2014,09,21,00,22,13.30
2014,09,21,00,23,13.30
2014,09,21,00,24,13.30
2014,09,21,00,25,13.30
2014,09,21,00,26,13.30
2014,09,21,00,27,13.30
2014,09,21,00,28,13.30
2014,09,21,00,29,13.30
2014,09,21,00,30,13.30
2014,09,21,00,31,13.30
2014,09,21,00,32,13.30
2014,09,21,00,33,13.30
2014,09,21,00,34,13.30
2014,09,21,00,35,13.30
2014,09,21,00,36,13.30
2014,09,21,00,37,13.30
2014,09,21,00,38,13.30
2014,09,21,00,39,13.30
2014,09,21,00,40,13.30
2014,09,21,00,41,13.30
2014,09,21,00,42,13.30
2014,09,21,00,43,13.30
2014,09,21,00,44,13.30
2014,09,21,00,45,13.30
2014,09,21,00,46,13.30
2014,09,21,00,47,13.30
2014,09,21,00,48,13.30
2014,09,21,00,49,13.30
2014,09,21,00,50,13.30
2014,09,21,00,51,13.30
2014,09,21,00,52,13.30
2014,09,21,00,53,13.30
2014,09,21,00,54,13.30
2014,09,21,00,55,13.20
2014,09,21,00,56,13.20
2014,09,21,00,57,13.20
2014,09,21,00,58,13.20
2014,09,21,00,59,13.20
2014,09,21,01,00,13.20
2014,09,21,01,01,13.20
2014,09,21,01,02,13.20
2014,09,21,01,03,13.20
2014,09,21,01,04,13.20
2014,09,21,01,05,13.20
2014,09,21,01,06,13.20
2014,09,21,01,07,13.20
2014,09,21,01,08,13.20
2014,09,21,01,09,13.20
2014,09,21,01,10,13.20
2014,09,21,01,11,13.20
2014,09,21,01,12,13.20
2014,09,21,01,13,13.20
2014,09,21,01,14,13.20
2014,09,21,01,15,13.20
2014,09,21,01,16,13.10
2014,09,21,01,17,13.10
2014,09,21,01,18,13.10
2014,09,21,01,19,13.10
2014,09,21,01,20,13.10
2014,09,21,01,21,13.10
2014,09,21,01,22,13.10
2014,09,21,01,23,13.10
2014,09,21,01,24,13.10
2014,09,21,01,25,13.00
2014,09,21,01,26,13.00
2014,09,21,01,27,13.00
2014,09,21,01,28,13.00
2014,09,21,01,29,13.00
2014,09,21,01,30,13.00
2014,09,21,01,31,12.90
2014,09,21,01,32,13.00
2014,09,21,01,33,12.90
2014,09,21,01,34,12.90
2014,09,21,01,35,12.90
2014,09,21,01,36,12.90
2014,09,21,01,37,12.90
2014,09,21,01,38,12.90
2014,09,21,01,39,12.90
2014,09,21,01,40,12.90
2014,09,21,01,41,12.80
2014,09,21,01,42,12.80
2014,09,21,01,43,12.80
2014,09,21,01,44,12.80
2014,09,21,01,45,12.80
2014,09,21,01,46,12.70
2014,09,21,01,47,12.70
2014,09,21,01,48,12.70
2014,09,21,01,49,12.70
2014,09,21,01,50,12.70
2014,09,21,01,51,12.70
2014,09,21,01,52,12.70
2014,09,21,01,53,12.70
2014,09,21,01,54,12.70
2014,09,21,01,55,12.70
2014,09,21,01,56,12.70
2014,09,21,01,57,12.70
2014,09,21,01,58,12.70
2014,09,21,01,59,12.70
2014,09,21,02,00,12.70
2014,09,21,02,01,12.60
2014,09,21,02,02,12.60
2014,09,21,02,03,12.70
2014,09,21,02,04,12.70
2014,09,21,02,05,12.70
2014,09,21,02,06,12.70
2014,09,21,02,07,12.70
2014,09,21,02,08,12.70
2014,09,21,02,09,12.70
2014,09,21,02,10,12.70
2014,09,21,02,11,12.70
2014,09,21,02,12,12.70
2014,09,21,02,13,12.70
2014,09,21,02,14,12.70
2014,09,21,02,15,12.70
2014,09,21,02,16,12.70
2014,09,21,02,17,12.70
2014,09,21,02,18,12.70
2014,09,21,02,19,12.70
2014,09,21,02,20,12.60
2014,09,21,02,21,12.60
2014,09,21,02,22,12.60
2014,09,21,02,23,12.60
2014,09,21,02,24,12.60
2014,09,21,02,25,12.60
2014,09,21,02,26,12.50
2014,09,21,02,27,12.50
2014,09,21,02,28,12.50
2014,09,21,02,29,12.50
2014,09,21,02,30,12.50
2014,09,21,02,31,12.50
2014,09,21,02,32,12.50
2014,09,21,02,33,12.50
2014,09,21,02,34,12.40
2014,09,21,02,35,12.40
2014,09,21,02,36,12.40
2014,09,21,02,37,12.40
2014,09,21,02,38,12.40
2014,09,21,02,39,12.40
2014,09,21,02,40,12.40
2014,09,21,02,41,12.40
2014,09,21,02,42,12.40
2014,09,21,02,43,12.40
2014,09,21,02,44,12.40
2014,09,21,02,45,12.40
2014,09,21,02,46,12.40
2014,09,21,02,47,12.40
2014,09,21,02,48,12.40
2014,09,21,02,49,12.40
2014,09,21,02,50,12.40
2014,09,21,02,51,12.40
2014,09,21,02,52,12.40
2014,09,21,02,53,12.30
2014,09,21,02,54,12.30
2014,09,21,02,55,12.30
2014,09,21,02,56,12.30
2014,09,21,02,57,12.30
2014,09,21,02,58,12.30
2014,09,21,02,59,12.30
2014,09,21,03,00,12.20
2014,09,21,03,01,12.20
2014,09,21,03,02,12.20
2014,09,21,03,03,12.20
2014,09,21,03,04,12.20
2014,09,21,03,05,12.20
2014,09,21,03,06,12.20
2014,09,21,03,07,12.10
2014,09,21,03,08,12.10
2014,09,21,03,09,12.10
2014,09,21,03,10,12.10
2014,09,21,03,11,12.10
2014,09,21,03,12,12.10
2014,09,21,03,13,12.00
2014,09,21,03,14,12.00
2014,09,21,03,15,12.00
2014,09,21,03,16,12.00
2014,09,21,03,17,12.00
2014,09,21,03,18,12.00
2014,09,21,03,19,12.00
2014,09,21,03,20,11.90
2014,09,21,03,21,11.90
2014,09,21,03,22,11.90
2014,09,21,03,23,11.90
2014,09,21,03,24,11.90
2014,09,21,03,25,11.80
2014,09,21,03,26,11.90
2014,09,21,03,27,11.90
2014,09,21,03,28,11.90
2014,09,21,03,29,12.00
2014,09,21,03,30,12.00
2014,09,21,03,31,12.10
2014,09,21,03,32,12.10
2014,09,21,03,33,12.10
2014,09,21,03,34,12.10
2014,09,21,03,35,12.10
2014,09,21,03,36,12.10
2014,09,21,03,37,12.10
2014,09,21,03,38,12.10
2014,09,21,03,39,12.10
2014,09,21,03,40,12.10
2014,09,21,03,41,12.20
2014,09,21,03,42,12.20
2014,09,21,03,43,12.20
2014,09,21,03,44,12.20
2014,09,21,03,45,12.20
2014,09,21,03,46,12.20
2014,09,21,03,47,12.30
2014,09,21,03,48,12.30
2014,09,21,03,49,12.30
2014,09,21,03,50,12.30
2014,09,21,03,51,12.30
2014,09,21,03,52,12.30
2014,09,21,03,53,12.30
2014,09,21,03,54,12.30
2014,09,21,03,55,12.30
2014,09,21,03,56,12.20
2014,09,21,03,57,12.20
2014,09,21,03,58,12.20
2014,09,21,03,59,12.20
2014,09,21,04,00,12.20
2014,09,21,04,01,12.20
2014,09,21,04,02,12.20
2014,09,21,04,03,12.20
2014,09,21,04,04,12.20
2014,09,21,04,05,12.20
2014,09,21,04,06,12.20
2014,09,21,04,07,12.20
2014,09,21,04,08,12.20
2014,09,21,04,09,12.20
2014,09,21,04,10,12.20
2014,09,21,04,11,12.20
2014,09,21,04,12,12.20
2014,09,21,04,13,12.20
2014,09,21,04,14,12.20
2014,09,21,04,15,12.20
2014,09,21,04,16,12.20
2014,09,21,04,17,12.20
2014,09,21,04,18,12.20
2014,09,21,04,19,12.20
2014,09,21,04,20,12.20
2014,09,21,04,21,12.20
2014,09,21,04,22,12.10
2014,09,21,04,23,12.10
2014,09,21,04,24,12.10
2014,09,21,04,25,12.10
2014,09,21,04,26,12.10
2014,09,21,04,27,12.00
2014,09,21,04,28,12.00
2014,09,21,04,29,12.00
2014,09,21,04,30,12.00
2014,09,21,04,31,12.00
2014,09,21,04,32,12.00
2014,09,21,04,33,12.00
2014,09,21,04,34,11.90
2014,09,21,04,35,11.90
2014,09,21,04,36,11.90
2014,09,21,04,37,11.90
2014,09,21,04,38,11.80
2014,09,21,04,39,11.80
2014,09,21,04,40,11.80
2014,09,21,04,41,11.80
2014,09,21,04,42,11.80
2014,09,21,04,43,11.80
2014,09,21,04,44,11.80
2014,09,21,04,45,11.80
2014,09,21,04,46,11.80
2014,09,21,04,47,11.80
2014,09,21,04,48,11.80
2014,09,21,04,49,11.80
2014,09,21,04,50,11.80
2014,09,21,04,51,11.80
2014,09,21,04,52,11.80
2014,09,21,04,53,11.80
2014,09,21,04,54,11.80
2014,09,21,04,55,11.80
2014,09,21,04,56,11.80
2014,09,21,04,57,11.80
2014,09,21,04,58,11.70
2014,09,21,04,59,11.70
2014,09,21,05,00,11.70
2014,09,21,05,01,11.70
2014,09,21,05,02,11.70
2014,09,21,05,03,11.60
2014,09,21,05,04,11.60
2014,09,21,05,05,11.60
2014,09,21,05,06,11.60
2014,09,21,05,07,11.50
2014,09,21,05,08,11.50
2014,09,21,05,09,11.50
2014,09,21,05,10,11.50
2014,09,21,05,11,11.40
2014,09,21,05,12,11.40
2014,09,21,05,13,11.40
2014,09,21,05,14,11.40
2014,09,21,05,15,11.40
2014,09,21,05,16,11.40
2014,09,21,05,17,11.30
2014,09,21,05,18,11.30
2014,09,21,05,19,11.30
2014,09,21,05,20,11.30
2014,09,21,05,21,11.30
2014,09,21,05,22,11.30
2014,09,21,05,23,11.30
2014,09,21,05,24,11.20
2014,09,21,05,25,11.20
2014,09,21,05,26,11.20
2014,09,21,05,27,11.20
2014,09,21,05,28,11.20
2014,09,21,05,29,11.20
2014,09,21,05,30,11.20
2014,09,21,05,31,11.20
2014,09,21,05,32,11.20
2014,09,21,05,33,11.30
2014,09,21,05,34,11.30
2014,09,21,05,35,11.30
2014,09,21,05,36,11.30
2014,09,21,05,37,11.30
2014,09,21,05,38,11.30
2014,09,21,05,39,11.30
2014,09,21,05,40,11.30
2014,09,21,05,41,11.30
2014,09,21,05,42,11.30
2014,09,21,05,43,11.30
2014,09,21,05,44,11.20
2014,09,21,05,45,11.20
2014,09,21,05,46,11.20
2014,09,21,05,47,11.20
2014,09,21,05,48,11.20
2014,09,21,05,49,11.20
2014,09,21,05,50,11.20
2014,09,21,05,51,11.20
2014,09,21,05,52,11.20
2014,09,21,05,53,11.20
2014,09,21,05,54,11.20
2014,09,21,05,55,11.20
2014,09,21,05,56,11.20
2014,09,21,05,57,11.10
2014,09,21,05,58,11.10
2014,09,21,05,59,11.10
2014,09,21,06,00,11.10
2014,09,21,06,01,11.10
2014,09,21,06,02,11.10
2014,09,21,06,03,11.10
2014,09,21,06,04,11.10
2014,09,21,06,05,11.10
2014,09,21,06,06,11.10
2014,09,21,06,07,11.00
2014,09,21,06,08,11.00
2014,09,21,06,09,11.00
2014,09,21,06,10,11.00
2014,09,21,06,11,11.00
2014,09,21,06,12,11.00
2014,09,21,06,13,11.00
2014,09,21,06,14,11.00
2014,09,21,06,15,11.00
2014,09,21,06,16,11.00
2014,09,21,06,17,11.00
2014,09,21,06,18,11.00
2014,09,21,06,19,11.00
2014,09,21,06,20,11.00
2014,09,21,06,21,11.00
2014,09,21,06,22,11.00
2014,09,21,06,23,11.00
2014,09,21,06,24,11.00
2014,09,21,06,25,11.00
2014,09,21,06,26,10.90
2014,09,21,06,27,10.90
2014,09,21,06,28,10.90
2014,09,21,06,29,10.90
2014,09,21,06,30,10.90
2014,09,21,06,31,10.90
2014,09,21,06,32,10.90
2014,09,21,06,33,10.90
2014,09,21,06,34,10.90
2014,09,21,06,35,10.90
2014,09,21,06,36,10.90
2014,09,21,06,37,10.90
2014,09,21,06,38,10.90
2014,09,21,06,39,10.90
2014,09,21,06,40,10.90
2014,09,21,06,41,10.90
2014,09,21,06,42,10.80
2014,09,21,06,43,10.80
2014,09,21,06,44,10.80
2014,09,21,06,45,10.70
2014,09,21,06,46,10.70
2014,09,21,06,47,10.80
2014,09,21,06,48,10.80
2014,09,21,06,49,10.80
2014,09,21,06,50,10.80
2014,09,21,06,51,10.80
2014,09,21,06,52,10.80
2014,09,21,06,53,10.80
2014,09,21,06,54,10.80
2014,09,21,06,55,10.80
2014,09,21,06,56,10.80
2014,09,21,06,57,10.80
2014,09,21,06,58,10.80
2014,09,21,06,59,10.80
2014,09,21,07,00,10.70
2014,09,21,07,01,10.70
2014,09,21,07,02,10.70
2014,09,21,07,03,10.70
2014,09,21,07,04,10.70
2014,09,21,07,05,10.70
2014,09,21,07,06,10.60
2014,09,21,07,07,10.60
2014,09,21,07,08,10.60
2014,09,21,07,09,10.60
2014,09,21,07,10,10.60
2014,09,21,07,11,10.60
2014,09,21,07,12,10.60
2014,09,21,07,13,10.60
2014,09,21,07,14,10.60
2014,09,21,07,15,10.70
2014,09,21,07,16,10.70
2014,09,21,07,17,10.70
2014,09,21,07,18,10.70
2014,09,21,07,19,10.70
2014,09,21,07,20,10.80
2014,09,21,07,21,10.80
2014,09,21,07,22,10.80
2014,09,21,07,23,10.70
2014,09,21,07,24,10.70
2014,09,21,07,25,10.70
2014,09,21,07,26,10.70
2014,09,21,07,27,10.70
2014,09,21,07,28,10.70
2014,09,21,07,29,10.70
2014,09,21,07,30,10.70
2014,09,21,07,31,10.70
2014,09,21,07,32,10.70
2014,09,21,07,33,10.70
2014,09,21,07,34,10.70
2014,09,21,07,35,10.70
2014,09,21,07,36,10.70
2014,09,21,07,37,10.70
2014,09,21,07,38,10.70
2014,09,21,07,39,10.70
2014,09,21,07,40,10.70
2014,09,21,07,41,10.70
2014,09,21,07,42,10.70
2014,09,21,07,43,10.70
2014,09,21,07,44,10.70
2014,09,21,07,45,10.70
2014,09,21,07,46,10.70
2014,09,21,07,47,10.70
2014,09,21,07,48,10.70
2014,09,21,07,49,10.70
2014,09,21,07,50,10.70
2014,09,21,07,51,10.70
2014,09,21,07,52,10.70
2014,09,21,07,53,10.70
2014,09,21,07,54,10.70
2014,09,21,07,55,10.70
2014,09,21,07,56,10.70
2014,09,21,07,57,10.70
2014,09,21,07,58,10.70
2014,09,21,07,59,10.70
2014,09,21,08,00,10.70
2014,09,21,08,01,10.70
2014,09,21,08,02,10.70
2014,09,21,08,03,10.70
2014,09,21,08,04,10.70
2014,09,21,08,05,10.70
2014,09,21,08,06,10.70
2014,09,21,08,07,10.70
2014,09,21,08,08,10.70
2014,09,21,08,09,10.70
2014,09,21,08,10,10.80
2014,09,21,08,11,10.70
2014,09,21,08,12,10.80
2014,09,21,08,13,10.80
2014,09,21,08,14,10.80
2014,09,21,08,15,10.80
2014,09,21,08,16,10.80
2014,09,21,08,17,10.80
2014,09,21,08,18,10.90
2014,09,21,08,19,10.90
2014,09,21,08,20,10.90
2014,09,21,08,21,11.00
2014,09,21,08,22,11.00
2014,09,21,08,23,11.10
2014,09,21,08,24,11.10
2014,09,21,08,25,11.20
2014,09,21,08,26,11.20
2014,09,21,08,27,11.30
2014,09,21,08,28,11.40
2014,09,21,08,29,11.40
2014,09,21,08,30,11.50
2014,09,21,08,31,11.50
2014,09,21,08,32,11.60
2014,09,21,08,33,11.60
2014,09,21,08,34,11.60
2014,09,21,08,35,11.70
2014,09,21,08,36,11.70
2014,09,21,08,37,11.70
2014,09,21,08,38,11.70
2014,09,21,08,39,11.70
2014,09,21,08,40,11.80
2014,09,21,08,41,11.80
2014,09,21,08,42,11.90
2014,09,21,08,43,11.90
2014,09,21,08,44,12.00
2014,09,21,08,45,12.00
2014,09,21,08,46,12.10
2014,09,21,08,47,12.10
2014,09,21,08,48,12.20
2014,09,21,08,49,12.20
2014,09,21,08,50,12.20
2014,09,21,08,51,12.20
2014,09,21,08,52,12.30
2014,09,21,08,53,12.30
2014,09,21,08,54,12.30
2014,09,21,08,55,12.40
2014,09,21,08,56,12.40
2014,09,21,08,57,12.50
2014,09,21,08,58,12.50
2014,09,21,08,59,12.60
2014,09,21,09,00,12.60
2014,09,21,09,01,12.70
2014,09,21,09,02,12.70
2014,09,21,09,03,12.80
2014,09,21,09,04,12.90
2014,09,21,09,05,12.90
2014,09,21,09,06,13.00
2014,09,21,09,07,13.10
2014,09,21,09,08,13.20
2014,09,21,09,09,13.30
2014,09,21,09,10,13.30
2014,09,21,09,11,13.40
2014,09,21,09,12,13.50
2014,09,21,09,13,13.50
2014,09,21,09,14,13.60
2014,09,21,09,15,13.60
2014,09,21,09,16,13.60
2014,09,21,09,17,13.70
2014,09,21,09,18,13.70
2014,09,21,09,19,13.80
2014,09,21,09,20,13.80
2014,09,21,09,21,13.90
2014,09,21,09,22,13.90
2014,09,21,09,23,14.00
2014,09,21,09,24,14.00
2014,09,21,09,25,14.10
2014,09,21,09,26,14.10
2014,09,21,09,27,14.20
2014,09,21,09,28,14.20
2014,09,21,09,29,14.30
2014,09,21,09,30,14.30
2014,09,21,09,31,14.40
2014,09,21,09,32,14.40
2014,09,21,09,33,14.50
2014,09,21,09,34,14.60
2014,09,21,09,35,14.60
2014,09,21,09,36,14.60
2014,09,21,09,37,14.70
2014,09,21,09,38,14.80
2014,09,21,09,39,14.80
2014,09,21,09,40,14.90
2014,09,21,09,41,14.90
2014,09,21,09,42,14.90
2014,09,21,09,43,15.00
2014,09,21,09,44,15.10
2014,09,21,09,45,15.10
2014,09,21,09,46,15.20
2014,09,21,09,47,15.20
2014,09,21,09,48,15.30
2014,09,21,09,49,15.30
2014,09,21,09,50,15.40
2014,09,21,09,51,15.50
2014,09,21,09,52,15.50
2014,09,21,09,53,15.60
2014,09,21,09,54,15.70
2014,09,21,09,55,15.80
2014,09,21,09,56,15.90
2014,09,21,09,57,16.00
2014,09,21,09,58,16.10
2014,09,21,09,59,16.20
2014,09,21,10,00,16.20
2014,09,21,10,01,16.30
2014,09,21,10,02,16.30
2014,09,21,10,03,16.40
2014,09,21,10,04,16.50
2014,09,21,10,05,16.60
2014,09,21,10,06,16.70
2014,09,21,10,07,16.80
2014,09,21,10,08,16.90
2014,09,21,10,09,17.00
2014,09,21,10,10,17.00
2014,09,21,10,11,17.10
2014,09,21,10,12,17.20
2014,09,21,10,13,17.20
2014,09,21,10,14,17.30
2014,09,21,10,15,17.30
2014,09,21,10,16,17.40
2014,09,21,10,17,17.40
2014,09,21,10,18,17.50
2014,09,21,10,19,17.60
2014,09,21,10,20,17.70
2014,09,21,10,21,17.80
2014,09,21,10,22,17.90
2014,09,21,10,23,17.90
2014,09,21,10,24,18.00
2014,09,21,10,25,18.10
2014,09,21,10,26,18.20
2014,09,21,10,27,18.30
2014,09,21,10,28,18.30
2014,09,21,10,29,18.40
2014,09,21,10,30,18.40
2014,09,21,10,31,18.50
2014,09,21,10,32,18.60
2014,09,21,10,33,18.60
2014,09,21,10,34,18.70
2014,09,21,10,35,18.80
2014,09,21,10,36,18.90
2014,09,21,10,37,19.00
2014,09,21,10,38,19.20
2014,09,21,10,39,19.20
2014,09,21,10,40,19.30
2014,09,21,10,41,19.40
2014,09,21,10,42,19.50
2014,09,21,10,43,19.60
2014,09,21,10,44,19.70
2014,09,21,10,45,19.80
2014,09,21,10,46,19.80
2014,09,21,10,47,19.90
2014,09,21,10,48,19.90
2014,09,21,10,49,20.00
2014,09,21,10,50,20.00
2014,09,21,10,51,20.10
2014,09,21,10,52,20.20
2014,09,21,10,53,20.40
2014,09,21,10,54,20.50
2014,09,21,10,55,20.60
2014,09,21,10,56,20.60
2014,09,21,10,57,20.70
2014,09,21,10,58,20.70
2014,09,21,10,59,20.70
2014,09,21,11,00,20.80
2014,09,21,11,01,20.90
2014,09,21,11,02,20.90
2014,09,21,11,03,21.00
2014,09,21,11,04,21.10
2014,09,21,11,05,21.20
2014,09,21,11,06,21.40
2014,09,21,11,07,21.50
2014,09,21,11,08,21.60
2014,09,21,11,09,21.70
2014,09,21,11,10,21.70
2014,09,21,11,11,21.80
2014,09,21,11,12,21.80
2014,09,21,11,13,21.80
2014,09,21,11,14,21.80
2014,09,21,11,15,21.70
2014,09,21,11,16,21.60
2014,09,21,11,17,21.60
2014,09,21,11,18,21.50
2014,09,21,11,19,21.50
2014,09,21,11,20,21.50
2014,09,21,11,21,21.40
2014,09,21,11,22,21.40
2014,09,21,11,23,21.50
2014,09,21,11,24,21.50
2014,09,21,11,25,21.60
2014,09,21,11,26,21.60
2014,09,21,11,27,21.70
2014,09,21,11,28,21.70
2014,09,21,11,29,21.80
2014,09,21,11,30,21.80
2014,09,21,11,31,21.80
2014,09,21,11,32,21.80
2014,09,21,11,33,21.60
2014,09,21,11,34,21.40
2014,09,21,11,35,21.30
2014,09,21,11,36,21.10
2014,09,21,11,37,21.00
2014,09,21,11,38,20.90
2014,09,21,11,39,20.80
2014,09,21,11,40,20.90
2014,09,21,11,41,20.90
2014,09,21,11,42,20.90
2014,09,21,11,43,20.90
2014,09,21,11,44,20.90
2014,09,21,11,45,21.00
2014,09,21,11,46,21.00
2014,09,21,11,47,21.10
2014,09,21,11,48,21.20
2014,09,21,11,49,21.30
2014,09,21,11,50,21.40
2014,09,21,11,51,21.50
2014,09,21,11,52,21.60
2014,09,21,11,53,21.70
2014,09,21,11,54,21.90
2014,09,21,11,55,22.00
2014,09,21,11,56,22.10
2014,09,21,11,57,22.30
2014,09,21,11,58,22.50
2014,09,21,11,59,22.70
2014,09,21,12,00,22.90
2014,09,21,12,01,23.00
2014,09,21,12,02,23.10
2014,09,21,12,03,23.30
2014,09,21,12,04,23.30
2014,09,21,12,05,23.40
2014,09,21,12,06,23.40
2014,09,21,12,07,23.40
2014,09,21,12,08,23.40
2014,09,21,12,09,23.40
2014,09,21,12,10,23.40
2014,09,21,12,11,23.40
2014,09,21,12,12,23.40
2014,09,21,12,13,23.40
2014,09,21,12,14,23.50
2014,09,21,12,15,23.50
2014,09,21,12,16,23.50
2014,09,21,12,17,23.60
2014,09,21,12,18,23.60
2014,09,21,12,19,23.60
2014,09,21,12,20,23.60
2014,09,21,12,21,23.70
2014,09,21,12,22,23.70
2014,09,21,12,23,23.70
2014,09,21,12,24,23.80
2014,09,21,12,25,23.80
2014,09,21,12,26,23.90
2014,09,21,12,27,24.00
2014,09,21,12,28,24.00
2014,09,21,12,29,24.10
2014,09,21,12,30,24.10
2014,09,21,12,31,23.90
2014,09,21,12,32,23.80
2014,09,21,12,33,23.80
2014,09,21,12,34,23.70
2014,09,21,12,35,23.70
2014,09,21,12,36,23.70
2014,09,21,12,37,23.70
2014,09,21,12,38,23.60
2014,09,21,12,39,23.60
2014,09,21,12,40,23.70
2014,09,21,12,41,23.70
2014,09,21,12,42,23.70
2014,09,21,12,43,23.70
2014,09,21,12,44,23.80
2014,09,21,12,45,23.80
2014,09,21,12,46,23.80
2014,09,21,12,47,23.90
2014,09,21,12,48,23.90
2014,09,21,12,49,23.90
2014,09,21,12,50,23.80
2014,09,21,12,51,23.70
2014,09,21,12,52,23.50
2014,09,21,12,53,23.30
2014,09,21,12,54,23.20
2014,09,21,12,55,23.10
2014,09,21,12,56,23.10
2014,09,21,12,57,23.10
2014,09,21,12,58,23.00
2014,09,21,12,59,23.10
2014,09,21,13,00,23.10
2014,09,21,13,01,23.10
2014,09,21,13,02,23.10
2014,09,21,13,03,23.20
2014,09,21,13,04,23.20
2014,09,21,13,05,23.30
2014,09,21,13,06,23.30
2014,09,21,13,07,23.40
2014,09,21,13,08,23.40
2014,09,21,13,09,23.50
2014,09,21,13,10,23.60
2014,09,21,13,11,23.70
2014,09,21,13,12,23.70
2014,09,21,13,13,23.80
2014,09,21,13,14,23.90
2014,09,21,13,15,24.00
2014,09,21,13,16,24.00
2014,09,21,13,17,24.10
2014,09,21,13,18,24.20
2014,09,21,13,19,24.20
2014,09,21,13,20,24.20
2014,09,21,13,21,24.20
2014,09,21,13,22,24.20
2014,09,21,13,23,24.30
2014,09,21,13,24,24.30
2014,09,21,13,25,24.40
2014,09,21,13,26,24.40
2014,09,21,13,27,24.40
2014,09,21,13,28,24.50
2014,09,21,13,29,24.50
2014,09,21,13,30,24.60
2014,09,21,13,31,24.60
2014,09,21,13,32,24.50
2014,09,21,13,33,24.50
2014,09,21,13,34,24.50
2014,09,21,13,35,24.50
2014,09,21,13,36,24.40
2014,09,21,13,37,24.40
2014,09,21,13,38,24.40
2014,09,21,13,39,24.40
2014,09,21,13,40,24.30
2014,09,21,13,41,24.30
2014,09,21,13,42,24.30
2014,09,21,13,43,24.20
2014,09,21,13,44,24.20
2014,09,21,13,45,24.10
2014,09,21,13,46,24.10
2014,09,21,13,47,24.00
2014,09,21,13,48,23.90
2014,09,21,13,49,23.80
2014,09,21,13,50,23.80
2014,09,21,13,51,23.70
2014,09,21,13,52,23.70
2014,09,21,13,53,23.60
2014,09,21,13,54,23.60
2014,09,21,13,55,23.60
2014,09,21,13,56,23.60
2014,09,21,13,57,23.60
2014,09,21,13,58,23.60
2014,09,21,13,59,23.50
2014,09,21,14,00,23.50
2014,09,21,14,01,23.50
2014,09,21,14,02,23.40
2014,09,21,14,03,23.40
2014,09,21,14,04,23.50
2014,09,21,14,05,23.50
2014,09,21,14,06,23.50
2014,09,21,14,07,23.60
2014,09,21,14,08,23.60
2014,09,21,14,09,23.70
2014,09,21,14,10,23.70
2014,09,21,14,11,23.80
2014,09,21,14,12,23.80
2014,09,21,14,13,23.90
2014,09,21,14,14,23.90
2014,09,21,14,15,24.00
2014,09,21,14,16,24.00
2014,09,21,14,17,24.10
2014,09,21,14,18,24.10
2014,09,21,14,19,24.00
2014,09,21,14,20,24.00
2014,09,21,14,21,24.00
2014,09,21,14,22,24.00
2014,09,21,14,23,24.10
2014,09,21,14,24,24.10
2014,09,21,14,25,24.10
2014,09,21,14,26,24.10
2014,09,21,14,27,24.10
2014,09,21,14,28,24.10
2014,09,21,14,29,24.10
2014,09,21,14,30,24.10
2014,09,21,14,31,24.10
2014,09,21,14,32,24.10
2014,09,21,14,33,24.10
2014,09,21,14,34,24.10
2014,09,21,14,35,24.10
2014,09,21,14,36,24.10
2014,09,21,14,37,24.10
2014,09,21,14,38,24.10
2014,09,21,14,39,24.20
2014,09,21,14,40,24.20
2014,09,21,14,41,24.30
2014,09,21,14,42,24.30
2014,09,21,14,43,24.40
2014,09,21,14,44,24.50
2014,09,21,14,45,24.60
2014,09,21,14,46,24.60
2014,09,21,14,47,24.70
2014,09,21,14,48,24.70
2014,09,21,14,49,24.80
2014,09,21,14,50,24.80
2014,09,21,14,51,24.80
2014,09,21,14,52,24.90
2014,09,21,14,53,24.90
2014,09,21,14,54,24.90
2014,09,21,14,55,24.80
2014,09,21,14,56,24.80
2014,09,21,14,57,24.90
2014,09,21,14,58,24.90
2014,09,21,14,59,24.90
2014,09,21,15,00,25.00
2014,09,21,15,01,25.00
2014,09,21,15,02,25.10
2014,09,21,15,03,25.20
2014,09,21,15,04,25.20
2014,09,21,15,05,25.30
2014,09,21,15,06,25.30
2014,09,21,15,07,25.30
2014,09,21,15,08,25.30
2014,09,21,15,09,25.30
2014,09,21,15,10,25.30
2014,09,21,15,11,25.30
2014,09,21,15,12,25.30
2014,09,21,15,13,25.30
2014,09,21,15,14,25.30
2014,09,21,15,15,25.40
2014,09,21,15,16,25.40
2014,09,21,15,17,25.40
2014,09,21,15,18,25.40
2014,09,21,15,19,25.40
2014,09,21,15,20,25.40
2014,09,21,15,21,25.30
2014,09,21,15,22,25.30
2014,09,21,15,23,25.30
2014,09,21,15,24,25.30
2014,09,21,15,25,25.40
2014,09,21,15,26,25.40
2014,09,21,15,27,25.40
2014,09,21,15,28,25.40
2014,09,21,15,29,25.40
2014,09,21,15,30,25.40
2014,09,21,15,31,25.40
2014,09,21,15,32,25.50
2014,09,21,15,33,25.50
2014,09,21,15,34,25.60
2014,09,21,15,35,25.60
2014,09,21,15,36,25.70
2014,09,21,15,37,25.70
2014,09,21,15,38,25.70
2014,09,21,15,39,25.70
2014,09,21,15,40,25.70
2014,09,21,15,41,25.70
2014,09,21,15,42,25.70
2014,09,21,15,43,25.60
2014,09,21,15,44,25.60
2014,09,21,15,45,25.70
2014,09,21,15,46,25.60
2014,09,21,15,47,25.60
2014,09,21,15,48,25.70
2014,09,21,15,49,25.70
2014,09,21,15,50,25.70
2014,09,21,15,51,25.60
2014,09,21,15,52,25.60
2014,09,21,15,53,25.60
2014,09,21,15,54,25.60
2014,09,21,15,55,25.60
2014,09,21,15,56,25.60
2014,09,21,15,57,25.60
2014,09,21,15,58,25.60
2014,09,21,15,59,25.70
2014,09,21,16,00,25.70
2014,09,21,16,01,25.80
2014,09,21,16,02,25.80
2014,09,21,16,03,25.80
2014,09,21,16,04,25.80
2014,09,21,16,05,25.80
2014,09,21,16,06,25.80
2014,09,21,16,07,25.80
2014,09,21,16,08,25.80
2014,09,21,16,09,25.80
2014,09,21,16,10,25.80
2014,09,21,16,11,25.80
2014,09,21,16,12,25.70
2014,09,21,16,13,25.60
2014,09,21,16,14,25.60
2014,09,21,16,15,25.50
2014,09,21,16,16,25.60
2014,09,21,16,17,25.60
2014,09,21,16,18,25.60
2014,09,21,16,19,25.60
2014,09,21,16,20,25.60
2014,09,21,16,21,25.60
2014,09,21,16,22,25.60
2014,09,21,16,23,25.60
2014,09,21,16,24,25.50
2014,09,21,16,25,25.40
2014,09,21,16,26,25.40
2014,09,21,16,27,25.40
2014,09,21,16,28,25.30
2014,09,21,16,29,25.30
2014,09,21,16,30,25.20
2014,09,21,16,31,25.20
2014,09,21,16,32,25.20
2014,09,21,16,33,25.10
2014,09,21,16,34,25.10
2014,09,21,16,35,25.10
2014,09,21,16,36,25.10
2014,09,21,16,37,25.10
2014,09,21,16,38,25.10
2014,09,21,16,39,25.20
2014,09,21,16,40,25.20
2014,09,21,16,41,25.20
2014,09,21,16,42,25.20
2014,09,21,16,43,25.10
2014,09,21,16,44,25.10
2014,09,21,16,45,25.00
2014,09,21,16,46,25.10
2014,09,21,16,47,25.10
2014,09,21,16,48,25.10
2014,09,21,16,49,25.10
2014,09,21,16,50,25.10
2014,09,21,16,51,25.10
2014,09,21,16,52,25.20
2014,09,21,16,53,25.20
2014,09,21,16,54,25.30
2014,09,21,16,55,25.30
2014,09,21,16,56,25.40
2014,09,21,16,57,25.50
2014,09,21,16,58,25.60
2014,09,21,16,59,25.60
2014,09,21,17,00,25.60
2014,09,21,17,01,25.70
2014,09,21,17,02,25.70
2014,09,21,17,03,25.70
2014,09,21,17,04,25.70
2014,09,21,17,05,25.60
2014,09,21,17,06,25.60
2014,09,21,17,07,25.50
2014,09,21,17,08,25.30
2014,09,21,17,09,25.20
2014,09,21,17,10,25.10
2014,09,21,17,11,25.10
2014,09,21,17,12,25.10
2014,09,21,17,13,25.20
2014,09,21,17,14,25.30
2014,09,21,17,15,25.40
2014,09,21,17,16,25.40
2014,09,21,17,17,25.40
2014,09,21,17,18,25.40
2014,09,21,17,19,25.40